Temperature
14 14 14 14 14 14 14 14 14 14 14 14 14 14 14 14 14 14 14 14 14 14 14 14 14 14 14 13 13 13 13 13 12 12 12 12 12 12 12 12 12 12 12
13 14 14 14 14 14 14 14 14 14 14 14 14 14 14 14 14 14 14 14 14 14 14 14 14 14 14 14 13 13 13 13 13 13 12 12 12 12 12 12 12 12 12
13 13 13 13 14 14 14 14 14 14 14 14 14 14 14 14 14 14 14 14 14 14 14 14 14 14 14 14 13 13 13 13 13 13 13 13 12 12 12 12 12 12 12
13 13 13 13 13 13 13 13 13 13 13 13 13 13 13 13 13 13 13 13 13 13 14 14 13 13 14 14 13 13 13 13 13 13 13 13 13 12 12 12 12 12 12
12 12 12 13 13 13 13 13 13 13 13 13 13 13 13 13 13 13 13 13 13 13 13 13 13 13 13 13 13 13 13 13 13 13 13 13 12 12 12 12 12 12 12
11 12 12 12 12 12 12 12 13 13 13 13 13 13 13 13 13 13 13 13 13 13 13 13 13 13 13 13 13 13 13 13 13 13 13 13 12 12 12 12 12 12 12
11 11 11 11 11 12 12 12 12 12 12 12 12 12 12 12 12 12 12 12 12 13 13 13 13 13 13 13 13 13 13 13 13 13 13 13 12 12 12 12 12 12 12
10 10 11 11 11 11 11 11 12 12 12 12 11 11 11 12 12 12 12 12 12 12 12 12 12 13 13 13 13 13 13 13 13 12 12 13 12 12 12 12 12 12 12
9 10 10 10 10 10 10 11 11 11 11 11 11 11 11 11 11 12 12 12 12 12 12 12 12 12 13 13 13 13 13 13 12 12 12 12 12 12 12 12 12 12 12
9 9 9 9 9 10 10 10 10 10 10 10 10 10 11 11 10 11 11 11 11 12 12 12 12 12 12 12 12 13 13 13 12 12 12 12 12 12 12 12 12 12 11
8 8 8 9 9 9 9 9 9 9 10 10 10 10 10 10 10 10 10 11 11 11 12 12 12 12 12 12 12 12 12 12 12 12 12 11 11 12 12 11 11 11 11
8 8 8 8 8 8 8 8 9 9 9 9 9 9 9 9 9 9 9 9 10 11 11 11 11 11 11 11 11 11 11 11 11 11 11 11 11 11 11 11 11 11 11
7 7 7 7 7 8 8 8 8 8 8 8 8 8 8 8 8 8 8 8 9 9 10 10 11 11 11 11 11 11 11 11 11 11 11 11 11 11 11 11 11 11 11
6 6 6 7 7 7 7 7 7 7 7 7 7 7 7 7 7 7 7 7 7 8 9 9 10 10 10 10 10 10 10 10 10 10 10 10 10 10 10 10 10 10 10
5 5 6 6 6 6 6 6 6 7 7 7 7 6 6 7 6 6 6 6 6 6 7 8 8 9 9 9 9 9 9 10 10 10 10 10 10 10 10 10 10 10 10
5 5 5 5 5 6 6 6 6 6 6 6 6 6 6 6 6 6 5 5 5 5 6 7 7 7 8 8 8 8 8 9 9 9 9 9 9 9 9 9 9 9 10
5 5 5 5 5 5 5 5 5 5 5 5 5 5 5 5 5 5 5 5 5 5 5 5 6 6 7 7 7 7 8 8 8 8 8 8 8 9 9 9 9 9 9
4 4 4 4 4 4 4 4 4 4 4 4 4 4 4 4 4 4 4 4 4 4 3 4 5 5 6 6 6 6 6 7 7 7 7 8 8 8 8 8 8 8 8
3 3 3 3 3 3 3 3 3 3 3 3 3 3 3 3 3 2 2 2 2 2 2 2 3 4 4 4 5 5 5 5 6 6 6 6 7 7 7 7 7 8 8
3 3 3 3 2 2 2 2 2 2 2 2 2 2 1 1 1 1 1 1 1 1 1 1 1 2 2 3 3 3 4 4 5 5 5 5 6 6 6 6 6 7 7
2 2 2 2 2 2 1 1 1 1 1 1 1 0 0 0 -0 -0 -1 -1 -1 -1 -1 -1 -1 -0 0 1 1 1 1 2 3 3 4 4 4 5 5 5 6 6 6
1 1 1 1 1 1 0 0 -0 -0 -0 -1 -1 -1 -1 -1 -1 -1 -2 -2 -2 -2 -2 -2 -2 -2 -2 -1 -1 -1 -1 0 1 2 2 3 3 4 4 5 5 5 5
1 1 1 0 0 -0 -1 -1 -1 -2 -2 -2 -2 -2 -2 -2 -2 -2 -2 -2 -3 -3 -3 -4 -3 -3 -3 -3 -3 -2 -2 -2 -1 0 0 1 2 3 3 3 4 4 5
0 0 -0 -0 -1 -1 -1 -2 -2 -2 -3 -3 -3 -3 -3 -3 -3 -4 -4 -4 -3 -3 -4 -4 -4 -4 -4 -4 -4 -4 -3 -3 -2 -1 -1 -0 1 1 2 2 3 3 4
-0 -0 -1 -1 -1 -1 -2 -2 -3 -3 -3 -3 -3 -4 -4 -4 -4 -5 -5 -5 -5 -4 -4 -4 -5 -5 -4 -4 -4 -4 -4 -4 -3 -2 -1 -1 -1 -0 1 1 2 2 3
-1 -1 -1 -2 -2 -2 -3 -3 -4 -4 -4 -4 -4 -4 -5 -5 -6 -6 -6 -6 -6 -5 -5 -5 -5 -5 -5 -4 -5 -5 -5 -5 -4 -4 -3 -2 -2 -1 -1 0 1 1 2
Wind_Speed
4 4 4 6 7 8 8 7 8 9 9 10 11 11 10 12 12 13 14 19 21 21 20 19 18 17 17 16 16 15 14 13 13 12 11 11 10 9 8 7 6 5 5
4 4 5 5 6 8 9 8 8 8 8 8 9 10 11 12 12 13 15 17 22 23 22 21 20 19 18 18 17 17 16 15 15 14 13 12 12 11 10 9 8 7 7
5 4 4 5 6 8 8 7 8 7 7 8 9 10 9 10 11 13 15 15 17 22 23 22 21 21 20 20 19 19 18 17 17 17 16 15 14 13 12 11 10 9 8
5 3 4 5 5 6 5 6 7 7 7 8 8 8 8 8 10 11 13 14 15 17 20 23 23 22 21 21 21 20 20 19 18 18 18 17 16 15 15 14 12 11 10
5 3 4 4 4 4 4 6 6 6 6 7 7 7 7 7 8 9 9 12 15 16 17 21 24 24 23 22 21 21 20 20 19 19 19 18 18 17 16 15 15 13 13
5 3 3 3 3 3 4 4 5 5 5 6 6 6 6 6 6 7 8 9 11 14 16 17 18 20 23 23 23 22 21 20 19 20 20 19 19 19 18 17 16 15 14
5 3 3 3 3 3 4 4 4 5 5 3 3 4 4 6 7 7 7 7 8 11 13 15 15 15 16 23 24 23 22 21 20 20 20 20 20 20 19 18 17 17 16
5 4 3 3 3 2 2 2 2 3 3 4 3 2 3 4 6 8 7 8 9 8 9 13 14 15 15 15 18 23 23 22 21 21 20 20 20 20 20 19 19 18 17
6 5 4 3 3 2 2 2 3 4 4 3 4 3 3 4 2 3 6 8 8 8 8 8 11 14 15 15 15 18 22 22 22 21 21 21 20 21 21 20 19 19 18
7 7 5 4 3 3 3 3 2 2 3 3 2 3 3 2 3 3 3 6 8 9 9 9 9 12 15 15 16 18 20 21 23 23 22 22 22 22 22 21 21 20 19
7 7 6 4 4 3 3 3 3 2 2 3 2 2 3 3 3 3 5 4 5 7 8 9 8 8 12 14 15 17 19 22 23 24 24 23 23 22 22 22 21 21 20
5 7 7 6 5 4 3 3 2 2 2 2 2 1 1 2 2 3 5 5 5 5 7 8 8 8 9 11 15 17 19 21 23 24 25 24 23 22 21 21 21 21 21
5 7 7 6 5 5 4 4 3 3 3 3 2 2 2 3 2 3 5 6 6 5 5 5 6 6 6 9 11 15 17 19 21 24 25 24 22 21 20 20 20 21 20
4 6 7 7 7 7 6 5 4 4 4 3 4 4 3 3 3 3 3 4 7 6 5 5 3 4 4 6 9 12 12 16 19 22 23 23 20 19 19 20 20 20 20
5 7 7 7 7 7 7 6 5 5 5 5 4 5 4 4 3 3 3 4 6 7 7 4 3 2 4 5 8 8 10 14 17 19 20 19 18 18 18 19 19 19 18
7 7 7 7 8 8 7 7 6 6 6 6 5 6 5 5 4 4 4 4 4 5 6 3 3 4 4 6 8 8 10 12 16 18 18 17 17 17 18 18 18 18 18
7 7 7 7 8 8 7 6 7 7 7 7 7 7 7 6 5 5 4 4 4 4 7 6 4 5 5 6 7 7 9 9 10 14 16 17 17 16 17 18 19 19 19
7 7 7 7 8 8 7 7 7 7 7 7 7 7 7 7 7 6 5 5 4 4 5 8 6 5 6 6 7 7 7 7 8 11 14 16 16 16 16 16 18 19 18
7 7 7 7 7 7 7 6 6 6 6 6 6 7 7 7 7 6 6 6 5 5 4 6 7 6 5 6 7 7 6 6 7 9 11 13 14 14 15 15 16 18 18
6 6 7 6 6 6 6 6 6 6 6 6 6 6 6 6 6 7 6 6 6 6 5 6 6 6 6 6 6 6 7 6 7 7 9 9 11 13 14 15 16 16 17
5 5 5 6 6 5 5 6 5 6 6 6 6 6 6 8 10 8 7 7 7 6 5 6 6 6 6 6 6 6 8 7 7 5 6 6 6 7 9 12 14 15 16
4 4 5 5 6 6 9 10 7 5 5 6 6 7 7 8 11 13 14 13 11 8 7 6 6 7 8 8 7 8 8 8 6 3 5 7 5 7 7 8 12 15 16
3 4 4 4 5 7 10 10 10 5 4 5 6 6 7 8 10 7 11 13 11 13 11 8 8 8 8 8 9 9 8 9 9 6 6 8 5 7 6 9 13 15 16
2 2 3 4 4 6 10 10 10 5 4 5 5 6 7 8 9 10 8 8 8 8 10 7 7 8 8 8 8 9 10 10 9 7 5 7 5 6 6 6 12 15 17
2 2 3 3 4 6 10 10 9 3 4 6 6 6 7 7 13 15 10 9 10 9 12 14 14 14 16 16 13 7 7 8 10 7 4 4 4 5 5 6 9 14 15
2 3 3 3 4 5 9 10 10 3 5 5 6 6 10 11 15 16 10 9 10 9 9 10 10 12 10 11 13 8 6 7 8 7 4 3 4 3 4 4 4 6 8
Wind_Direction
241 233 230 224 221 217 211 210 208 207 209 211 215 217 222 223 223 222 222 219 215 214 214 212 212 214 216 219 222 221 221 221 219 217 216 216 215 214 214 214 215 215 211
244 239 236 227 224 218 213 212 212 213 216 215 219 222 224 224 224 224 223 222 219 216 215 215 216 217 219 222 225 225 224 223 221 220 219 220 218 216 217 218 218 217 215
256 246 240 236 231 225 219 214 212 211 219 221 224 226 226 225 223 222 222 220 220 219 217 217 219 221 223 225 228 229 226 225 224 222 221 222 222 220 221 220 221 220 219
272 253 244 243 236 224 220 218 213 213 221 224 225 227 227 224 224 222 221 220 219 220 221 221 221 223 226 228 231 232 229 227 225 224 224 224 223 222 223 223 223 222 221
296 274 252 252 241 224 224 226 219 212 220 226 228 227 225 225 227 226 223 222 221 220 219 222 223 224 225 228 232 234 233 230 227 226 226 225 225 223 224 225 224 223 223
312 298 274 273 255 234 227 229 231 221 219 222 232 234 232 229 227 225 226 226 225 225 223 223 224 228 227 228 231 235 235 233 230 228 227 227 226 225 224 225 225 224 222
330 324 302 289 272 247 238 230 234 231 227 208 217 243 249 238 234 230 223 222 225 226 225 225 225 224 228 229 230 233 235 235 233 231 229 228 227 227 225 225 225 224 222
355 352 337 315 300 282 265 256 243 233 228 200 198 207 248 254 239 232 224 226 228 224 225 227 225 224 224 224 227 228 232 236 235 235 232 230 229 229 228 226 225 224 222
3 9 2 348 334 312 283 271 252 236 237 221 202 194 210 235 265 253 232 231 230 228 230 229 229 230 227 223 223 226 228 233 235 237 235 233 232 231 231 229 226 224 223
7 7 5 3 356 354 344 318 293 259 243 244 236 230 225 207 224 264 258 236 232 232 231 231 230 232 231 228 226 224 225 229 234 239 239 237 235 234 232 230 229 227 225
7 4 2 5 3 359 354 346 334 320 279 254 243 234 243 251 236 242 266 261 247 238 235 234 232 234 235 231 231 230 226 227 233 239 242 240 237 236 234 231 230 228 226
3 6 5 5 359 356 352 345 342 345 330 305 283 261 242 246 244 245 257 269 266 257 244 238 233 232 234 234 234 232 227 228 233 238 242 242 240 238 237 235 232 228 225
5 2 5 4 1 360 358 357 357 357 345 338 315 294 282 276 282 270 262 270 272 272 258 243 234 232 239 240 241 236 232 231 234 239 243 244 243 240 238 236 236 231 226
0 0 7 12 12 12 12 12 13 8 6 356 347 339 313 298 298 287 276 278 279 271 256 254 250 233 253 254 253 243 242 237 238 241 244 245 244 238 235 235 235 234 230
14 17 19 19 18 17 18 21 22 17 13 11 1 353 346 338 331 315 302 281 269 274 270 255 251 272 277 279 272 265 256 247 241 240 242 244 243 236 233 232 232 231 231
20 19 25 27 26 23 21 27 28 22 23 15 9 10 3 349 342 333 323 313 295 277 274 284 277 307 305 299 289 278 270 264 246 241 240 243 243 238 234 232 231 228 230
22 23 23 28 29 26 23 28 30 27 26 21 17 14 5 355 351 345 335 326 314 302 284 294 304 313 304 297 295 290 279 271 264 252 247 244 243 241 237 233 229 227 230
24 23 22 28 29 25 23 26 25 25 25 21 13 12 6 1 358 350 340 328 317 306 290 293 299 306 299 300 293 287 286 286 281 269 256 250 244 242 239 236 230 226 227
23 22 24 26 22 19 19 21 22 21 21 17 10 9 4 4 358 349 346 341 326 317 305 297 299 305 302 314 305 296 292 284 289 282 270 260 254 250 244 239 235 228 227
24 20 21 18 14 12 14 14 16 18 15 11 6 2 359 358 350 343 341 337 332 329 323 313 308 307 309 314 312 307 304 296 289 285 275 272 267 258 249 243 238 231 228
22 17 15 10 4 4 8 10 11 11 8 0 357 354 352 352 352 350 345 341 338 331 324 320 314 315 314 322 318 310 300 300 291 275 269 264 264 257 252 247 241 232 229
9 12 9 2 360 359 359 4 7 8 360 355 347 343 341 344 345 344 341 338 335 327 323 316 311 310 313 315 318 313 308 303 296 291 282 277 259 258 253 249 248 240 231
355 356 350 350 343 342 352 355 360 2 354 344 338 335 336 336 338 326 328 332 328 325 319 309 302 301 302 306 305 304 305 302 291 290 291 277 261 259 256 258 249 243 235
325 323 326 330 330 337 347 346 348 354 335 326 321 318 316 318 325 326 321 319 311 307 307 304 290 289 292 292 288 291 294 296 290 278 263 269 268 265 272 255 251 242 234
311 310 316 325 326 326 341 343 345 328 321 316 314 317 318 311 320 325 321 313 309 304 309 307 303 301 302 303 302 303 302 299 296 291 264 260 270 281 273 260 251 241 234
296 313 320 317 313 313 331 338 337 319 317 314 310 307 314 318 319 321 316 308 305 304 305 307 304 303 300 300 302 294 289 289 289 289 276 270 273 294 289 262 254 244 239
Height
1509 1509 1510 1511 1512 1513 1513 1514 1515 1516 1518 1519 1520 1521 1522 1524 1525 1526 1527 1529 1530 1530 1531 1531 1532 1532 1533 1533 1534 1534 1535 1535 1536 1536 1536 1536 1536 1536 1536 1535 1535 1535 1534
1505 1505 1506 1507 1507 1508 1509 1510 1511 1512 1513 1514 1515 1517 1518 1519 1521 1522 1523 1525 1526 1527 1528 1528 1529 1529 1530 1530 1531 1532 1532 1533 1533 1533 1533 1534 1534 1534 1534 1534 1533 1533 1533
1500 1501 1501 1502 1503 1504 1505 1505 1506 1507 1508 1509 1510 1512 1513 1514 1515 1517 1519 1520 1521 1523 1524 1524 1525 1526 1527 1527 1528 1529 1529 1530 1530 1530 1531 1531 1531 1531 1531 1531 1531 1531 1531
1496 1497 1497 1497 1498 1499 1500 1501 1501 1502 1503 1504 1505 1506 1507 1509 1510 1511 1513 1514 1516 1517 1519 1520 1521 1522 1523 1523 1524 1525 1525 1526 1527 1527 1528 1528 1528 1528 1529 1529 1529 1529 1528
1492 1492 1492 1493 1494 1494 1495 1496 1496 1497 1498 1499 1500 1501 1502 1502 1504 1506 1507 1508 1510 1512 1513 1515 1516 1517 1518 1519 1520 1521 1521 1522 1523 1524 1524 1524 1525 1525 1525 1526 1526 1526 1526
1487 1488 1488 1488 1489 1489 1490 1490 1491 1492 1493 1494 1495 1495 1496 1497 1498 1500 1501 1502 1504 1505 1507 1509 1510 1511 1513 1514 1515 1516 1517 1518 1518 1519 1520 1520 1521 1521 1522 1522 1522 1523 1523
1483 1483 1483 1484 1484 1484 1485 1486 1486 1487 1488 1490 1491 1490 1491 1492 1493 1494 1496 1497 1498 1499 1501 1502 1504 1505 1507 1508 1510 1511 1511 1512 1513 1514 1515 1516 1516 1517 1517 1518 1518 1519 1519
1479 1479 1479 1479 1480 1480 1480 1481 1481 1481 1483 1485 1486 1486 1486 1487 1486 1488 1489 1490 1491 1493 1494 1496 1497 1499 1500 1502 1503 1505 1506 1507 1508 1509 1510 1511 1511 1512 1513 1513 1514 1514 1515
1476 1476 1475 1475 1475 1475 1475 1476 1477 1478 1478 1479 1481 1482 1482 1481 1481 1482 1483 1484 1485 1486 1487 1488 1490 1492 1494 1495 1496 1498 1499 1501 1502 1503 1504 1505 1506 1507 1507 1508 1509 1509 1510
1473 1473 1472 1472 1472 1471 1471 1472 1473 1474 1474 1475 1476 1477 1478 1478 1478 1476 1477 1478 1479 1480 1481 1482 1483 1484 1486 1487 1489 1491 1493 1494 1495 1496 1497 1498 1499 1500 1501 1502 1503 1504 1505
1471 1470 1470 1469 1468 1468 1468 1468 1469 1469 1470 1471 1471 1471 1472 1473 1473 1473 1472 1472 1472 1473 1474 1475 1476 1477 1478 1480 1481 1483 1485 1487 1489 1489 1490 1491 1492 1493 1494 1496 1497 1498 1499
1469 1468 1467 1466 1465 1465 1465 1465 1465 1465 1466 1466 1467 1467 1467 1468 1467 1468 1467 1466 1466 1466 1467 1468 1469 1470 1471 1472 1473 1475 1477 1479 1480 1482 1483 1484 1485 1486 1487 1488 1490 1491 1492
1467 1466 1465 1464 1463 1462 1462 1462 1462 1462 1462 1463 1463 1463 1463 1463 1463 1463 1463 1461 1460 1459 1459 1460 1461 1462 1463 1464 1465 1467 1468 1470 1472 1473 1475 1476 1477 1478 1480 1481 1483 1484 1485
1466 1465 1464 1462 1461 1460 1460 1459 1459 1459 1459 1459 1458 1458 1458 1458 1458 1458 1457 1457 1455 1453 1452 1452 1453 1454 1456 1457 1458 1459 1460 1461 1463 1464 1466 1467 1468 1470 1472 1473 1475 1476 1478
1465 1464 1462 1461 1460 1459 1458 1457 1456 1456 1456 1455 1454 1454 1453 1453 1453 1453 1452 1452 1452 1448 1445 1445 1446 1447 1448 1449 1450 1450 1451 1452 1454 1455 1456 1458 1459 1461 1463 1465 1467 1468 1470
1464 1462 1461 1460 1458 1457 1456 1455 1454 1453 1453 1452 1451 1450 1450 1449 1448 1448 1447 1447 1446 1444 1440 1439 1440 1440 1441 1441 1442 1442 1443 1444 1444 1445 1447 1449 1451 1452 1454 1456 1458 1460 1461
1463 1461 1459 1458 1457 1456 1454 1453 1452 1451 1450 1449 1448 1447 1446 1445 1444 1443 1442 1441 1440 1438 1436 1433 1434 1433 1433 1433 1433 1433 1434 1434 1435 1436 1437 1439 1441 1443 1444 1446 1448 1450 1452
1462 1460 1459 1457 1455 1454 1452 1451 1449 1448 1447 1446 1445 1443 1442 1440 1439 1438 1436 1435 1434 1433 1431 1428 1427 1426 1426 1425 1424 1424 1424 1425 1425 1426 1427 1429 1431 1432 1435 1437 1439 1441 1443
1462 1460 1458 1456 1454 1452 1451 1449 1447 1446 1444 1443 1442 1440 1438 1436 1435 1434 1432 1430 1429 1427 1426 1423 1421 1420 1419 1418 1417 1416 1416 1415 1416 1416 1417 1418 1420 1422 1424 1427 1429 1431 1433
1461 1459 1457 1455 1453 1451 1450 1448 1446 1444 1443 1441 1439 1437 1435 1433 1432 1430 1428 1426 1424 1422 1420 1418 1415 1414 1413 1412 1411 1409 1407 1408 1407 1408 1408 1409 1410 1412 1414 1416 1419 1421 1423
1460 1458 1456 1454 1452 1450 1448 1446 1444 1442 1440 1438 1437 1435 1433 1431 1429 1427 1425 1422 1420 1418 1416 1414 1411 1409 1407 1406 1405 1403 1402 1400 1399 1400 1400 1400 1401 1402 1404 1406 1408 1411 1413
1458 1456 1454 1452 1450 1448 1446 1444 1442 1440 1438 1436 1434 1432 1429 1427 1425 1423 1421 1419 1417 1415 1412 1410 1407 1405 1403 1402 1400 1399 1397 1395 1393 1394 1393 1392 1393 1393 1394 1397 1398 1401 1404
1456 1454 1452 1450 1448 1446 1444 1442 1439 1437 1435 1433 1430 1428 1426 1424 1422 1419 1417 1415 1413 1411 1410 1408 1404 1402 1399 1398 1396 1394 1392 1390 1388 1387 1387 1384 1385 1384 1386 1387 1389 1391 1394
1454 1451 1449 1447 1445 1443 1441 1439 1436 1434 1432 1430 1427 1425 1422 1420 1417 1415 1412 1410 1408 1406 1405 1402 1400 1397 1396 1394 1393 1390 1388 1385 1382 1382 1381 1378 1377 1377 1377 1378 1380 1382 1385
1451 1449 1446 1444 1442 1440 1438 1436 1434 1431 1428 1426 1424 1421 1419 1416 1414 1411 1409 1405 1403 1401 1399 1397 1395 1393 1391 1389 1388 1385 1383 1380 1376 1375 1375 1373 1371 1370 1369 1369 1371 1373 1376
1448 1446 1443 1441 1439 1437 1435 1433 1430 1427 1424 1422 1419 1417 1415 1412 1409 1407 1404 1401 1398 1395 1393 1390 1388 1386 1384 1383 1381 1380 1378 1375 1372 1370 1369 1369 1366 1365 1362 1361 1363 1365 1367